Regional Weather Roundup
Issued by NWS Wakefield, VA

Home | Current Version | Previous Version | Text Only | Print | Product List | Glossary On
Versions: 1 2 3 4 5 6 7 8 9 10 11 12 13 14 15 16 17 18 19 20 21 22 23 24 25 26 27 28 29 30 31 32 33 34 35 36 37 38 39 40 41 42 43 44 45 46 47 48 49 50
000
ASUS41 KAKQ 020915
RWRAKQ

REGIONAL WEATHER ROUNDUP
NATIONAL WEATHER SERVICE WAKEFIELD VA
500 AM EDT SAT JUL 02 2016

Note: "fair" indicates few or no clouds below 12,000 feet with no
significant weather and/or obstructions to visibility. * = Denotes
station may not report precipitation (e.g., rain,snow,etc.),
thunder or fog.

VAZ042-051-052>054-056-021000-
NORTHERN VIRGINIA

CITY           SKY/WX    TMP DP  RH WIND       PRES   REMARKS
WASH NATIONAL  FAIR      70  61  73 N6        29.99R
DULLES         FAIR      70  58  65 NW9       30.00R
FORT BELVOIR   FAIR      65  63  93 CALM      29.99R FOG
QUANTICO       FAIR      69  64  84 NW5       30.00R
FREDERICKSBRG* FAIR      67  67 100 NW3       29.99R
STAFFORD*      FOG       62  61  97 CALM      30.04R VSB 1/2
WARRENTON      FAIR      63  59  86 CALM      30.00R FOG
CULPEPER*      FAIR      63  63  99 CALM      30.02R
MANASSAS*      FAIR      64  63  94 N3        30.00R
LEESBURG*      FAIR      70  61  73 NW12      30.02R
WINCHESTER     FAIR      68  55  64 NW5       30.04R
FRONT ROYAL*   FAIR      66  59  77 CALM      30.02R
LURAY*         FAIR      64  59  82 SE3       30.03R
$$

VAZ048-049-060>072-079>083-021000-
CENTRAL AND SOUTH CENTRAL VIRGINIA

CITY           SKY/WX    TMP DP  RH WIND       PRES   REMARKS
RICHMOND       CLOUDY    69  68  96 CALM      29.98R
CHESTERFIELD*  PTSUNNY   66  55  68 CALM      30.00R
PETERSBURG*    MOCLDY    72  72 100 CALM      29.98S FOG
HANOVER        FAIR      65  64  97 CALM      30.00R FOG
TAPPAHANNOCK*  FAIR      67  67 100 W3        29.99R
QUINTON*       CLOUDY    69  69 100 NW5       29.97R
CHARLOTTSVILLE FAIR      66  61  84 CALM      30.02R
GORDONSVILLE*  FAIR      63  63 100 CALM      30.01R
ORANGE*          N/A     64  64 100 CALM      30.03R
LOUISA*        FAIR      70  68  94 CALM      30.00R
BUMPASS*       FAIR      64  64 100 CALM      30.00R
FARMVILLE*     FAIR      65  65 100 CALM      29.99R FOG
CREWE*         FAIR      65  65 100 CALM      30.00R
FORT PICKETT*  CLOUDY    68  67  98 W10       30.00R
CHASE CITY*    FAIR      69  67  94 CALM      30.01R
CLARKSVILLE*   PTSUNNY   70  70 100 CALM      30.00R
SOUTH HILL*    FAIR      67  67  99 CALM      30.06R
LAWRENCEVILLE* FAIR      69  69  99 CALM      29.99R
EMPORIA*         N/A     70  68  94 CALM      29.99S
$$

VAZ088>098-021000-
SOUTHEAST VIRGINIA

CITY           SKY/WX    TMP DP  RH WIND       PRES   REMARKS
NORFOLK        FAIR      75  72  90 SW8       29.95R
VIRGINIA BEACH FAIR      78  71  79 W8        29.95R
NORFOLK NAVAL  MOCLDY    75  72  90 W8        29.97R
WEST POINT*    CLOUDY    69  68  98 CALM      29.99R
SALUDA*        FAIR      70  70 100 CALM      29.97R
NEWPORT NEWS   FAIR      73  72  96 W8        29.96R
LANGLEY AFB    FAIR      73  73  99 W8        29.95R
FORT EUSTIS    MOCLDY    74  74 100 W3        29.95R
WILLIAMSBURG*  FAIR      73  73 100 W3        29.98R
HR EXEC AP*    FAIR      72  70  94 W3        29.98R
FRANKLIN*      FAIR      70  68  93 SW3       29.97S
US460-WAKEFLD  FAIR      70  69  97 CALM      29.97R
$$

VAZ020-022-025-037-045-021000-
WEST CENTRAL AND SOUTHWEST VIRGINIA

CITY           SKY/WX    TMP DP  RH WIND       PRES   REMARKS
STAUNTON*      FAIR      60  59  96 CALM      30.08R
WAYNESBORO*    FAIR      62  59  89 CALM      30.07R
HOT SPRINGS VA CLOUDY    61  61 100 W6        30.14R FOG
LYNCHBURG      FAIR      64  63  96 W3        30.04R
DANVILLE       FAIR      67  66  97 CALM      30.01R
SOUTH BOSTON*  FAIR      68  67  96 CALM      30.01R
MARTINSVILLE   FAIR      63  62  97 CALM      30.06R FOG
ROANOKE        FAIR      68  63  84 W3        30.06R
BLACKSBURG     FAIR      62  62  99 CALM      30.13R
DUBLIN*        FAIR      65  64  94 CALM      30.10S
MARION*        CLOUDY    62  61  95 CALM      30.14S
HILLSVILLE*    FAIR      64  62  91 CALM      30.10S
RICHLANDS*     CLOUDY    65  61  88 CALM      30.12S
WISE*          CLOUDY    68  64  88 N5        30.13S
ABINGDON*      FAIR      67  65  93 CALM      30.09S
$$

MDZ021>025-VAZ099-100-021000-
SOUTHERN MARYLAND AND THE DELMARVA PENINSULA

CITY           SKY/WX    TMP DP  RH WIND       PRES   REMARKS
PATUXENT RIVER CLEAR     71  65  81 NW9       29.96R
BAY BRIDGE APT CLEAR     72  64  78 NW8       29.96R
LEONARDTOWN    CLEAR     68  63  83 W6        29.99R
DOVER          CLEAR     70  65  85 NW9       29.93R
GEORGETOWN     CLEAR     69  67  93 CALM      29.95R
EASTON         CLEAR     70  69  96 N7        29.99R
CAMBRIDGE      CLEAR     70  64  83 NW9       29.95R
SALISBURY      CLEAR     70  68  93 W7        29.94R
OCEAN CITY     CLEAR     71  68  90 NW6       29.93R
WALLOPS ISLAND FAIR      73  70  90 W6        29.95R
ACCOMACK*      FAIR      73  68  83 NW10      29.96R
$$

NCZ012>017-030>032-021000-
NORTH CENTRAL AND EASTERN NORTH CAROLINA

CITY           SKY/WX    TMP DP  RH WIND       PRES   REMARKS
ROANOKE RAPIDS PTSUNNY   72  72 100 CALM      29.99R
RALEIGH        CLOUDY    72  71  97 CALM      30.00S
ELIZABETH CITY CLOUDY    75  72  90 W7        29.96R
AHOSKIE*         N/A     69  68  98 MISG        N/A
EDENTON*       CLOUDY    76  68  76 NW6       29.99R
CURRITUCK*     CLOUDY    75  72  91 SW7       29.97R
KILL DEVIL HLS CLOUDY    77  73  88 W13G18    29.96R
MANTEO         CLOUDY    76  75  98 W12G18    29.98R
CAPE HATTERAS  CLEAR     78  75  90 W8        29.98S
TARBORO*       PTSUNNY   75  73  93 CALM      29.99S
GOLDSBORO      CLOUDY    77  77 100 W6        29.99R
WASHINGTON     MOCLDY    74  73  96 W3        29.98S
GREENVILLE     CLOUDY    77  75  94 CALM      30.01R
NEW BERN       CLEAR     74  72  93 SW5       30.00S
WILMINGTON     CLEAR     76  74  93 SW3       30.00R
$$

VAZ048-021000-
ELSEWHERE

CITY           SKY/WX    TMP DP  RH WIND       PRES   REMARKS
HARRISBURG PA  CLEAR     68  51  54 NW9       29.99R
BALTIMORE      PTCLDY    64  62  93 W3        29.97R
ANNAPOLIS      CLEAR     71  63  75 NW7       29.96R
ANDREWS AFB    FAIR      68  61  78 NW6       29.98R
PHILADELPHIA   CLEAR     72  55  55 NW10      29.93R
HENDERSON NC   CLOUDY    69  66  89 SW5       30.01R
GREENSBORO     MOCLDY    73  70  90 CALM      30.01S
ROCKY MOUNT    MOCLDY    76  72  87 W6        29.99R
$$

VAZ100-021000-
MARINE

STATION/POSITION TIME  TEMP    WIND        PRES    WAVE   SWELL
                       AIR SEA DIR/SP/G            HT/PER HT/PER
                 (UTC) (F)     (DEG/KT/KT) (MB)    (FT/S) (FT/S)
BRANDYWINE LGT   0800   74     320/ 12/ 15   N/A
CAPE MAY NJ      0800   74 72  310/  9/ 16 1012.1R
LEWES DE         0800   72 70  290/ 10/ 11 1012.6R
15NM E FENWICK I 0850   73 72              1013.0R   4/ 6
OCEAN-CITY-INLET 0800   73 75  310/  8/ 11 1012.9R
WACHAPREAGUE VA  0800   73 75  270/  3/  6 1013.4R
THOMAS POINT MD  0900   71 77  320/ 11/ 13 1016.3R
GOOSES REEF MD   0800   75 78  310/ 14/ 17 1014.5S   1/ 2
COVE POINT MD    0800   73     320/ 11/ 15 1014.2S
SOLOMONS ISLAND  0800   73 78  310/  6/ 10   N/A
BISHOPS HEAD MD  0800   76 78  300/ 18/ 19 1013.9R
PINEY POINT MD   0800          340/ 17/ 18   N/A
POTOMAC MD       0800   75 78  290/ 12/ 14 1013.0R   1/ 2
CAMBRIDGE MD     0800   75 79  290/  8/ 11 1012.5R
LEWISETTA VA     0800   71 79  290/  5/  6 1013.9R
RAPPAHANNOCK LGT 0800          270/ 14/ 16 1014.6R
STINGRAY PT      0800   76 78  300/ 14/ 16 1014.4R   1/ 2
YORK RVR RNG VA  0800   76     280/ 12/ 14 1013.2R
YORKTOWN VA      0800   74 78  240/ 11/ 13 1013.6R
JAMESTOWN VA     0800   75 81  220/  2/  4   N/A     0
DOMINION TERM VA 0800   76     280/ 10/ 11 1014.0R
KIPTOPEKE VA     0800      77  260/ 12/ 15   N/A
CHES BAY BRIDGE  0800   75 77  230/ 12/ 14 1013.5R
CAPE HENRY VA    0800   74     250/  6/  8   N/A
WILLOUBY STN VA  0800   76     260/ 14/ 15 1014.6R
CAPE HENRY BUOY  0812      74                N/A     3/ 6
1ST LANDING BUOY 0800   76 76  230/ 10/ 12 1013.7R
CAPE CHARLES BUO 0826      72                N/A     2/ 7
OFFSHORE WE BUOY 0821      77                N/A     3/ 6
64NM E OF VA BCH 0850   74 73  250/  8/ 10 1014.2R   3/ 6   3/ 6
DUCK PIER NC     0800   78 64  250/ 17/ 22 1013.5R
44056 DUCK FRF   0811      67                N/A     2/ 7
OREGON INLET NC  0800   78 81  240/ 17/ 19 1014.3S
HATTERAS NC      0800   78 79  230/  8/ 12 1014.8S
DIAMOND SHLS NC  0750   80 81  250/ 19/ 23 1014.8    5/ 6   2/ 8
CAPE LOOKOUT NC  0900   79     240/  9/ 12 1015.3F
$$



USA.gov is the U.S. government's official web portal to all federal, state and local government web resources and services.